| time (UTC) | temp C | wind direction | speed KPH | gust KPH | rain 1hr cm | rain 24hr cm | rain mn cm | humidity % | barometer mb |
| 20260507073031 | -17 | 0.0 | 0.0 | 0.00 | 0.00 | 0.00 | 1021.4 | ||
| 20260507071610 | -17 | 0.0 | 0.0 | 0.00 | 0.00 | 0.00 | 1021.3 | ||
| 20260507070036 | -17 | 0.0 | 0.0 | 0.00 | 0.00 | 0.00 | 1021.2 | ||
| 20260507064627 | -17 | 0.0 | 0.0 | 0.00 | 0.00 | 0.00 | 1021.1 | ||
| 20260507063018 | -17 | 0.0 | 0.0 | 0.00 | 0.00 | 0.00 | 1020.8 | ||
| 20260507061517 | -17 | 0.0 | 0.0 | 0.00 | 0.00 | 0.00 | 1020.6 | ||
| 20260507060017 | -17 | 0.0 | 0.0 | 0.00 | 0.00 | 0.00 | 1020.6 | ||
| 20260507054639 | -17 | 0.0 | 0.0 | 0.00 | 0.00 | 0.00 | 1020.4 | ||
| 20260507053015 | -17 | 0.0 | 0.0 | 0.00 | 0.00 | 0.00 | 1019.9 | ||
| 20260507051555 | -17 | 0.0 | 0.0 | 0.00 | 0.00 | 0.00 | 1019.8 | ||
| 20260507050007 | 7 | 127 | 1.6 | 0.0 | 0.00 | 0.00 | 0.00 | 97 | 1019.7 |
| 20260507044550 | 7 | 131 | 1.6 | 0.0 | 0.00 | 0.00 | 0.00 | 97 | 1019.5 |
| 20260507043025 | 7 | 132 | 0.0 | 0.0 | 0.00 | 0.00 | 0.00 | 97 | 1019.5 |
| 20260507041521 | 7 | 134 | 0.0 | 0.0 | 0.00 | 0.00 | 0.00 | 97 | 1019.3 |
| 20260507040135 | 7 | 119 | 1.6 | 0.0 | 0.00 | 0.00 | 0.00 | 97 | 1019.2 |
| 20260507034530 | 7 | 125 | 1.6 | 0.0 | 0.00 | 0.00 | 0.00 | 97 | 1019.1 |
| 20260507033029 | 7 | 142 | 0.0 | 0.0 | 0.00 | 0.00 | 0.00 | 97 | 1018.9 |
| 20260507031535 | 7 | 113 | 0.0 | 0.0 | 0.00 | 0.00 | 0.00 | 97 | 1019.0 |
| 20260507030057 | 7 | 135 | 0.0 | 0.0 | 0.00 | 0.00 | 0.00 | 97 | 1018.9 |
| 20260507024620 | 7 | 148 | 1.6 | 0.0 | 0.00 | 0.00 | 0.00 | 97 | 1018.8 |
| 20260507023133 | 7 | 122 | 0.0 | 0.0 | 0.00 | 0.00 | 0.00 | 97 | 1018.7 |
| 20260507021628 | 7 | 122 | 1.6 | 0.0 | 0.00 | 0.00 | 0.00 | 97 | 1018.6 |
| 20260507020053 | 7 | 137 | 0.0 | 0.0 | 0.00 | 0.00 | 0.00 | 97 | 1018.5 |
| 20260507014514 | 7 | 136 | 0.0 | 0.0 | 0.00 | 0.00 | 0.00 | 97 | 1018.4 |
| 20260507013039 | 7 | 174 | 0.0 | 0.0 | 0.00 | 0.00 | 0.00 | 97 | 1018.4 |
| 20260507011623 | 7 | 118 | 0.0 | 0.0 | 0.00 | 0.00 | 0.00 | 97 | 1018.1 |
| 20260507010041 | 7 | 168 | 0.0 | 0.0 | 0.00 | 0.00 | 0.00 | 97 | 1018.1 |
| 20260507004520 | 7 | 110 | 0.0 | 0.0 | 0.00 | 0.00 | 0.00 | 97 | 1018.1 |
| 20260507003036 | 7 | 159 | 0.0 | 0.0 | 0.00 | 0.00 | 0.00 | 97 | 1018.1 |
| 20260507001625 | 7 | 122 | 1.6 | 0.0 | 0.00 | 0.00 | 0.00 | 97 | 1018.0 |
| 20260507000109 | 7 | 127 | 0.0 | 0.0 | 0.00 | 0.00 | 0.00 | 97 | 1017.9 |
| 20260506234538 | 7 | 96 | 1.6 | 0.0 | 0.00 | 0.00 | 0.00 | 97 | 1017.9 |
| 20260506233017 | 7 | 144 | 1.6 | 0.0 | 0.00 | 0.00 | 0.00 | 97 | 1017.9 |
| 20260506231518 | 7 | 126 | 0.0 | 0.0 | 0.00 | 0.00 | 0.00 | 97 | 1017.7 |
| 20260506230030 | 7 | 142 | 1.6 | 0.0 | 0.00 | 0.00 | 0.00 | 97 | 1017.6 |
| 20260506224559 | 7 | 138 | 1.6 | 0.0 | 0.00 | 0.00 | 0.00 | 97 | 1017.6 |
| 20260506223146 | 7 | 145 | 0.0 | 0.0 | 0.00 | 0.00 | 0.00 | 97 | 1017.4 |
| 20260506221641 | 7 | 136 | 0.0 | 0.0 | 0.00 | 0.00 | 0.00 | 97 | 1017.5 |
| 20260506220026 | 7 | 126 | 0.0 | 0.0 | 0.00 | 0.00 | 0.00 | 97 | 1017.4 |
| 20260506214609 | 7 | 138 | 0.0 | 0.0 | 0.00 | 0.00 | 0.00 | 97 | 1017.5 |
| 20260506213029 | 7 | 111 | 1.6 | 0.0 | 0.00 | 0.00 | 0.00 | 97 | 1017.4 |
| 20260506211527 | 7 | 155 | 0.0 | 0.0 | 0.00 | 0.00 | 0.00 | 97 | 1017.3 |
| 20260506210008 | 7 | 146 | 0.0 | 0.0 | 0.00 | 0.00 | 0.00 | 97 | 1017.2 |
| 20260506204534 | 7 | 132 | 0.0 | 0.0 | 0.00 | 0.00 | 0.00 | 97 | 1017.1 |
| 20260506203029 | 7 | 132 | 0.0 | 0.0 | 0.00 | 0.00 | 0.00 | 97 | 1017.0 |
| 20260506201531 | 7 | 144 | 0.0 | 0.0 | 0.00 | 0.00 | 0.00 | 97 | 1016.9 |
| 20260506200026 | 7 | 153 | 0.0 | 0.0 | 0.00 | 0.00 | 0.00 | 97 | 1016.8 |
| 20260506194539 | 7 | 187 | 0.0 | 0.0 | 0.00 | 0.00 | 0.00 | 97 | 1016.8 |
| 20260506193144 | 7 | 124 | 1.6 | 0.0 | 0.00 | 0.00 | 0.00 | 97 | 1016.7 |
| 20260506191610 | 8 | 135 | 0.0 | 0.0 | 0.00 | 0.00 | 0.00 | 97 | 1016.6 |
| 20260506190030 | 8 | 125 | 0.0 | 0.0 | 0.00 | 0.00 | 0.00 | 97 | 1016.3 |
| 20260506184530 | 8 | 144 | 0.0 | 0.0 | 0.00 | 0.00 | 0.00 | 97 | 1016.2 |
| 20260506183115 | 8 | 123 | 0.0 | 0.0 | 0.00 | 0.00 | 0.00 | 97 | 1016.0 |
| 20260506181537 | 8 | 128 | 0.0 | 0.0 | 0.00 | 0.00 | 0.00 | 97 | 1015.9 |
| 20260506180025 | 8 | 182 | 0.0 | 0.0 | 0.00 | 0.00 | 0.00 | 97 | 1015.7 |
| 20260506174526 | 8 | 156 | 0.0 | 0.0 | 0.00 | 0.00 | 0.00 | 97 | 1015.6 |
| 20260506173032 | 8 | 207 | 0.0 | 0.0 | 0.00 | 0.00 | 0.00 | 97 | 1015.5 |
| 20260506171505 | 8 | 155 | 0.0 | 0.0 | 0.00 | 0.00 | 0.00 | 97 | 1015.4 |
| 20260506170007 | 8 | 181 | 0.0 | 0.0 | 0.00 | 0.00 | 0.00 | 97 | 1015.3 |
| 20260506164504 | 8 | 142 | 0.0 | 0.0 | 0.00 | 0.00 | 0.00 | 97 | 1015.3 |
| 20260506163039 | 8 | 138 | 0.0 | 0.0 | 0.00 | 0.00 | 0.00 | 97 | 1015.2 |
| 20260506161638 | 8 | 127 | 0.0 | 0.0 | 0.00 | 0.00 | 0.00 | 97 | 1015.1 |
| 20260506160110 | 8 | 118 | 0.0 | 0.0 | 0.00 | 0.00 | 0.00 | 97 | 1015.0 |
| 20260506154525 | 8 | 126 | 0.0 | 0.0 | 0.00 | 0.00 | 0.00 | 97 | 1015.1 |
| 20260506153033 | 8 | 118 | 0.0 | 0.0 | 0.00 | 0.00 | 0.00 | 97 | 1015.0 |
| 20260506151525 | 8 | 122 | 0.0 | 0.0 | 0.00 | 0.00 | 0.00 | 97 | 1015.1 |
| 20260506150025 | 8 | 145 | 0.0 | 0.0 | 0.00 | 0.00 | 0.00 | 97 | 1015.0 |
| 20260506144528 | 8 | 138 | 0.0 | 0.0 | 0.00 | 0.00 | 0.00 | 97 | 1014.8 |
| 20260506143017 | 8 | 112 | 1.6 | 0.0 | 0.00 | 0.00 | 0.00 | 97 | 1014.7 |
| 20260506141521 | 8 | 116 | 0.0 | 0.0 | 0.00 | 0.00 | 0.00 | 97 | 1014.7 |
| 20260506140043 | 8 | 136 | 1.6 | 0.0 | 0.00 | 0.00 | 0.00 | 97 | 1014.7 |
| 20260506134548 | 8 | 117 | 0.0 | 0.0 | 0.00 | 0.00 | 0.00 | 97 | 1014.5 |
| 20260506133052 | 8 | 140 | 0.0 | 0.0 | 0.00 | 0.00 | 0.00 | 96 | 1014.6 |
| 20260506131553 | 8 | 115 | 0.0 | 0.0 | 0.00 | 0.00 | 0.00 | 97 | 1014.5 |
| 20260506130045 | 8 | 127 | 0.0 | 0.0 | 0.00 | 0.00 | 0.00 | 97 | 1014.5 |
| 20260506124517 | 8 | 123 | 0.0 | 0.0 | 0.00 | 0.00 | 0.00 | 97 | 1014.4 |
| 20260506123056 | 8 | 115 | 0.0 | 0.0 | 0.00 | 0.00 | 0.00 | 97 | 1014.3 |
| 20260506121523 | 8 | 90 | 0.0 | 0.0 | 0.00 | 0.00 | 0.00 | 97 | 1014.1 |
| 20260506120106 | 8 | 169 | 1.6 | 0.0 | 0.00 | 0.00 | 0.00 | 96 | 1014.0 |
| 20260506114647 | 8 | 117 | 1.6 | 0.0 | 0.00 | 0.00 | 0.00 | 96 | 1013.8 |
| 20260506113004 | 8 | 144 | 0.0 | 0.0 | 0.00 | 0.00 | 0.00 | 97 | 1013.7 |
| 20260506111554 | 8 | 111 | 0.0 | 0.0 | 0.00 | 0.00 | 0.00 | 96 | 1013.8 |
| 20260506110057 | 8 | 126 | 0.0 | 0.0 | 0.00 | 0.00 | 0.00 | 96 | 1013.7 |
| 20260506104637 | 8 | 114 | 1.6 | 0.0 | 0.00 | 0.00 | 0.00 | 96 | 1013.7 |
| 20260506103129 | 8 | 120 | 1.6 | 0.0 | 0.00 | 0.00 | 0.00 | 97 | 1013.6 |
| 20260506101528 | 8 | 136 | 1.6 | 0.0 | 0.00 | 0.00 | 0.00 | 96 | 1013.4 |
| 20260506100126 | 9 | 134 | 1.6 | 0.0 | 0.00 | 0.00 | 0.00 | 96 | 1013.4 |
| 20260506094533 | 9 | 119 | 0.0 | 0.0 | 0.00 | 0.00 | 0.00 | 96 | 1013.2 |
| 20260506093027 | 10 | 121 | 0.0 | 0.0 | 0.00 | 0.00 | 0.00 | 97 | 1012.9 |
| 20260506091613 | 10 | 136 | 0.0 | 0.0 | 0.00 | 0.00 | 0.00 | 97 | 1012.9 |
| 20260506090127 | 10 | 132 | 0.0 | 0.0 | 0.00 | 0.00 | 0.00 | 97 | 1012.6 |
| 20260506084547 | 10 | 149 | 1.6 | 0.0 | 0.00 | 0.00 | 0.00 | 96 | 1012.5 |
| 20260506083018 | 10 | 140 | 1.6 | 0.0 | 0.00 | 0.00 | 0.00 | 96 | 1012.5 |
| 20260506081523 | 10 | 131 | 1.6 | 0.0 | 0.00 | 0.00 | 0.00 | 96 | 1012.4 |